"Pseudo-MPEC" for P1182Un

Created 2020 Oct 20 16:07:28 UT using Find_Orb

Click here for an explanation of pseudo-MPECs

 
 Astrometry: 
     P1182Un  C2020 10 15I`VToAstrometry^$yXI`ZVp^0;Vredacted;eg4O_p4t2W6K[v\F51
     P1182Un  C2020 10 15il@mERp+3'UqCffy+-g4l8HgJ#PaS2Py,wclickD_m*Lt_whereqF51
     P1182Un  C2020 10 15KJVforK8j*mexplanation_.s^4oJI1;mJbQP]7MTbEYsqq=iUdNF51
     P1182Un ^C2020 10 19.58554703 42 45.779+22 25 57.62   ~AJJM 22.37GVNEOCP568
     P1182Un ^C2020 10 19.58649703 42 45.723+22 25 57.25   ~AJJM 22.37GVNEOCP568
     P1182Un ^C2020 10 19.58744403 42 45.665+22 25 56.93   ~AJJM 22.31GVNEOCP568

Station data:
(568) Mauna Kea  (N19.826116 W155.472200)  US/Hawaii.
(F51) Pan-STARRS 1, Haleakala  (N20.707235 W156.255910)  US/Hawaii.
   Observers N. Primak, A. Schultz, S. Watters, J. Thiel, T. Goggia. Measurer
   PS1 Science Consortium. 1.8-m Ritchey-Chrétien + CCD.

Orbital elements:  P1182Un
   Perihelion 2020 Mar 23.771551 +/- 448 TT = 18:31:02 (JD 2458932.271551)
Epoch 2020 Oct 19.0 TT = JDT 2459141.5   Earth MOID: 0.4438   AutoNEOCP
M  58.79887380 +/- 90               (J2000 ecliptic)
n   0.28102714 +/- 0.23             Peri.   62.35753 +/- 56
a   2.30836173 +/- 1.26             Node   239.53103 +/- 4.6
e   0.3733988 +/- 0.234             Incl.    5.85291 +/- 52
P   3.51                   H 19.7   G  0.15   U 11.8  SR
q 1.44642205 +/- 1.38    Q 3.17030142 +/- 28.8
From 6 observations 2020 Oct. 15-19; mean residual 0".04
Residuals in arcseconds: 
201015 F51  .04+  .03-    201015 F51  .05+  .04-    201019 568  .01+  .02-    
201015 F51  .09-  .07+    201019 568  .01+  .03+    201019 568  .02-  .02-    

Ephemerides (geocentric):
Date (UTC) HH   RA              Dec         delta   r     elong  mag " sig PA
---- -- -- --  -------------   -----------  ------ ------ -----  --- ---- ---
2020 10 20 16  03 41 44.426   +22 19 54.63  1.2488 2.1640 149.0 22.7 62.6 159
2020 10 20 17  03 41 42.014   +22 19 40.43  1.2487 2.1642 149.1 22.7 65.8 159
2020 10 20 18  03 41 39.599   +22 19 26.22  1.2487 2.1644 149.1 22.7 68.9 159
2020 10 20 19  03 41 37.181   +22 19 11.99  1.2486 2.1645 149.2 22.7 72.2 159
2020 10 20 20  03 41 34.760   +22 18 57.74  1.2485 2.1647 149.2 22.7 75.5 159
2020 10 20 21  03 41 32.337   +22 18 43.48  1.2485 2.1649 149.3 22.7 78.8 159
2020 10 20 22  03 41 29.910   +22 18 29.20  1.2484 2.1651 149.3 22.7 82.2 159
2020 10 20 23  03 41 27.481   +22 18 14.91  1.2483 2.1653 149.4 22.7 85.6 159
2020 10 21 00  03 41 25.049   +22 18 00.60  1.2482 2.1655 149.4 22.7 89.0 159
2020 10 21 01  03 41 22.614   +22 17 46.27  1.2482 2.1657 149.5 22.7 92.6 159
2020 10 21 02  03 41 20.176   +22 17 31.93  1.2481 2.1658 149.5 22.7 96.1 159
2020 10 21 03  03 41 17.736   +22 17 17.57  1.2480 2.1660 149.6 22.7 99.7 159
2020 10 21 04  03 41 15.293   +22 17 03.20  1.2480 2.1662 149.6 22.7  103 159
2020 10 21 05  03 41 12.847   +22 16 48.81  1.2479 2.1664 149.7 22.7  107 159
2020 10 21 06  03 41 10.398   +22 16 34.41  1.2479 2.1666 149.8 22.7  111 159
2020 10 21 07  03 41 07.946   +22 16 19.99  1.2478 2.1668 149.8 22.7  115 159
2020 10 21 08  03 41 05.492   +22 16 05.56  1.2477 2.1669 149.9 22.7  119 159
2020 10 21 09  03 41 03.035   +22 15 51.11  1.2477 2.1671 149.9 22.7  122 159
2020 10 21 10  03 41 00.575   +22 15 36.65  1.2476 2.1673 150.0 22.7  126 159
2020 10 21 11  03 40 58.112   +22 15 22.17  1.2475 2.1675 150.0 22.7  130 159
2020 10 21 12  03 40 55.647   +22 15 07.67  1.2475 2.1677 150.1 22.7  134 159
2020 10 21 13  03 40 53.179   +22 14 53.16  1.2474 2.1679 150.1 22.7  139 159
2020 10 21 14  03 40 50.708   +22 14 38.63  1.2473 2.1681 150.2 22.7  143 159
2020 10 21 15  03 40 48.234   +22 14 24.09  1.2473 2.1682 150.2 22.7  147 159
2020 10 21 16  03 40 45.758   +22 14 09.53  1.2472 2.1684 150.3 22.7  151 159
2020 10 21 17  03 40 43.279   +22 13 54.96  1.2472 2.1686 150.3 22.7  156 159
2020 10 21 18  03 40 40.797   +22 13 40.37  1.2471 2.1688 150.4 22.7  160 159
2020 10 21 19  03 40 38.313   +22 13 25.77  1.2470 2.1690 150.4 22.7  164 159
2020 10 21 20  03 40 35.825   +22 13 11.15  1.2470 2.1692 150.5 22.7  169 159
2020 10 21 21  03 40 33.336   +22 12 56.52  1.2469 2.1694 150.5 22.7  173 159
2020 10 21 22  03 40 30.843   +22 12 41.87  1.2469 2.1695 150.6 22.7  178 159
2020 10 21 23  03 40 28.348   +22 12 27.20  1.2468 2.1697 150.6 22.7  182 159
2020 10 22 00  03 40 25.850   +22 12 12.52  1.2467 2.1699 150.7 22.7  187 159
2020 10 22 01  03 40 23.349   +22 11 57.83  1.2467 2.1701 150.7 22.7  192 159
2020 10 22 02  03 40 20.846   +22 11 43.12  1.2466 2.1703 150.8 22.7  197 159
2020 10 22 03  03 40 18.340   +22 11 28.39  1.2466 2.1705 150.8 22.7  201 159
2020 10 22 04  03 40 15.832   +22 11 13.65  1.2465 2.1706 150.9 22.7  206 159
2020 10 22 05  03 40 13.321   +22 10 58.90  1.2465 2.1708 150.9 22.7  211 159
2020 10 22 06  03 40 10.807   +22 10 44.12  1.2464 2.1710 151.0 22.7  216 159
2020 10 22 07  03 40 08.291   +22 10 29.34  1.2464 2.1712 151.0 22.7  221 159
2020 10 22 08  03 40 05.771   +22 10 14.54  1.2463 2.1714 151.1 22.7  226 159
2020 10 22 09  03 40 03.250   +22 09 59.72  1.2462 2.1716 151.1 22.7  232 159
2020 10 22 10  03 40 00.726   +22 09 44.89  1.2462 2.1718 151.2 22.7  237 159
2020 10 22 11  03 39 58.199   +22 09 30.04  1.2461 2.1719 151.2 22.7  242 159
2020 10 22 12  03 39 55.669   +22 09 15.18  1.2461 2.1721 151.3 22.7  247 159
2020 10 22 13  03 39 53.137   +22 09 00.30  1.2460 2.1723 151.4 22.7  253 159
2020 10 22 14  03 39 50.602   +22 08 45.41  1.2460 2.1725 151.4 22.7  258 159
2020 10 22 15  03 39 48.065   +22 08 30.51  1.2459 2.1727 151.5 22.7  264 159